VK6ADF Weather Reports


Display with metric or nautical units.
time (UTC)temp
F
wind
direction
speed
MPH
gust
MPH
rain 1hr
in
rain 24hr
in
rain mn
in
humidity
%
barometer
mb
20260506181528 56 180 1.0 2.0 0.00 0.00 0.00 68 1025.7
20260506180028 56 180 1.0 2.0 0.00 0.00 0.00 68 1025.7
20260506174529 56 0 0.0 2.0 0.00 0.00 0.00 67 1025.8
20260506173029 57 180 0.0 1.0 0.00 0.00 0.00 66 1025.8
20260506171528 58 0 0.0 2.0 0.00 0.00 0.00 65 1025.8
20260506170030 58 0 0.0 2.0 0.00 0.00 0.00 65 1025.6
20260506164530 58 180 0.0 2.0 0.00 0.00 0.00 65 1025.6
20260506163032 58 180 0.0 2.0 0.00 0.00 0.00 64 1025.6
20260506161533 58 0 0.0 1.0 0.00 0.00 0.00 63 1025.5
20260506160029 59 180 0.0 1.0 0.00 0.00 0.00 63 1025.6
20260506154530 59 180 0.0 1.0 0.00 0.00 0.00 62 1025.6
20260506153027 59 181 0.0 1.0 0.00 0.00 0.00 62 1025.6
20260506151529 58 0 0.0 1.0 0.00 0.00 0.00 63 1025.8
20260506150027 58 0 0.0 0.0 0.00 0.00 0.00 61 1025.9
20260506144534 59 181 0.0 1.0 0.00 0.00 0.00 59 1025.9
20260506143030 60 180 0.0 1.0 0.00 0.00 0.00 58 1025.9
20260506141535 60 180 1.0 2.0 0.00 0.00 0.00 57 1025.9
20260506140030 61 180 1.0 2.0 0.00 0.00 0.00 57 1025.9
20260506134529 61 180 0.0 1.0 0.00 0.00 0.00 56 1025.9
20260506133035 61 180 0.0 1.0 0.00 0.00 0.00 55 1025.8
20260506131528 62 180 0.0 1.0 0.00 0.00 0.00 54 1025.7
20260506130030 62 180 0.0 1.0 0.00 0.00 0.00 54 1025.7
20260506124540 62 180 0.0 1.0 0.00 0.00 0.00 53 1025.6
20260506123030 63 180 0.0 2.0 0.00 0.00 0.00 52 1025.4
20260506121530 63 0 0.0 0.0 0.00 0.00 0.00 51 1025.3
20260506120030 63 0 0.0 0.0 0.00 0.00 0.00 50 1025.0
20260506114527 63 0 0.0 0.0 0.00 0.00 0.00 50 1024.7
20260506113031 64 0 0.0 0.0 0.00 0.00 0.00 48 1024.7
20260506111530 65 0 0.0 0.0 0.00 0.00 0.00 45 1024.6
20260506110030 67 0 0.0 0.0 0.00 0.00 0.00 44 1024.4
20260506104529 68 0 0.0 0.0 0.00 0.00 0.00 42 1024.4
20260506103030 70 180 0.0 1.0 0.00 0.00 0.00 40 1024.2
20260506101530 71 180 0.0 2.0 0.00 0.00 0.00 38 1024.1
20260506100028 73 153 2.0 5.0 0.00 0.00 0.00 36 1023.9
20260506094529 74 107 3.0 9.0 0.00 0.00 0.00 35 1023.9
20260506093038 75 111 4.0 9.0 0.00 0.00 0.00 34 1023.7
20260506091531 76 86 4.0 10.0 0.00 0.00 0.00 34 1023.6
20260506090030 76 126 5.0 13.0 0.00 0.00 0.00 33 1023.5
20260506084536 77 44 4.0 9.0 0.00 0.00 0.00 33 1023.4
20260506083311 77 63 4.0 11.0 0.00 0.00 0.00 32 1023.3
20260506073032 79 309 6.0 11.0 0.00 0.00 0.00 32 1023.2
20260506071532 79 87 4.0 12.0 0.00 0.00 0.00 31 1023.2
20260506060133 81 84 6.0 14.0 0.00 0.00 0.00 30 1023.5
20260506001615 59 325 4.0 8.0 0.00 0.00 0.00 63 1026.2
20260505234948 56 21 2.0 4.0 0.00 0.00 0.00 66 1025.8
20260505233032 55 180 1.0 2.0 0.00 0.00 0.00 66 1025.5
20260505231556 55 209 0.0 2.0 0.00 0.00 0.00 65 1025.3
20260505230033 56 185 1.0 4.0 0.00 0.00 0.00 64 1025.1
20260505223226 56 325 4.0 6.0 0.00 0.00 0.00 64 1024.9
20260505221530 56 326 3.0 7.0 0.00 0.00 0.00 63 1024.7
20260505220449 57 339 5.0 9.0 0.00 0.00 0.00 63 1024.5
20260505214915 57 71 4.0 9.0 0.00 0.00 0.00 63 1024.3
20260505213414 57 328 5.0 10.0 0.00 0.00 0.00 62 1024.1
20260505211939 57 340 4.0 8.0 0.00 0.00 0.00 62 1024.0
20260505210225 57 158 3.0 9.0 0.00 0.00 0.00 62 1024.0
20260505204529 57 323 3.0 8.0 0.00 0.00 0.00 61 1023.9
20260505203131 57 221 4.0 6.0 0.00 0.00 0.00 61 1023.9
20260505201538 58 331 2.0 4.0 0.00 0.00 0.00 60 1023.9
20260505200202 58 174 3.0 7.0 0.00 0.00 0.00 60 1023.9
20260505194910 58 337 3.0 5.0 0.00 0.00 0.00 60 1023.8
20260505193113 58 295 3.0 5.0 0.00 0.00 0.00 59 1023.7
20260505190030 60 349 3.0 8.0 0.00 0.00 0.00 58 1023.6
20260505184532 60 149 4.0 8.0 0.00 0.00 0.00 58 1023.6
20260505183543 60 319 3.0 6.0 0.00 0.00 0.00 58 1023.5